Weather History for PAGK - April, 2014

Change the Weather History Date:

Tuesday, April 29, 2014

  Actual Average Record
Temperature  
Mean Temperature 41 °F -  
Max Temperature 55 °F 50 °F 69 °F (2005)
Min Temperature 27 °F 27 °F 3 °F (2013)
Degree Days  
Heating Degree Days 24    
Moisture  
Dew Point 24 °F    
Average Humidity 50    
Maximum Humidity 85    
Minimum Humidity 18    
Precipitation  
Precipitation 0.00 in - - ()
Sea Level Pressure  
Sea Level Pressure 30.11 in    
Wind  
Wind Speed 4 mph (SW)    
Max Wind Speed 8 mph    
Max Gust Speed -    
Visibility 10 miles    
Events      
Averages and records for this station are not official NWS values.
T = Trace of Precipitation, MM = Missing Value Source: NWS Daily Summary

Daily Weather History Graph

Daily Weather History Graph

Search for Another Location

Airport or City:

Trip Planner

Search our weather history database for the weather conditions in past years. The results will help you decide how hot, cold, wet, or windy it might be!

Date:

Astronomy

Apr. 29, 2014 Rise Set
Actual Time 5:32 AM AKDT 9:47 PM AKDT
Civil Twilight 4:34 AM AKDT 10:46 PM AKDT
Nautical Twilight 2:52 AM AKDT 12:34 AM AKDT
Astronomical Twilight Sun does not set Sun does not set
Moon 6:00 AM AKDT (4/29) 10:44 PM AKDT (4/29)
Length of Visible Light 18h 12m
Length of Day
16h 14m
New Moon, 0% of the Moon is Illuminated
Apr 29
New Moon
May 6
First Quarter
May 14
Full
May 21
Last Quarter
May 28
New

Hourly Weather History & Observations

Time (AKDT) Temp. Windchill Dew Point Humidity Pressure Visibility Wind Dir Wind Speed Gust Speed Precip Events Conditions
12:53 AM 32.0 °F 26.4 °F 21.9 °F 66% 30.00 in 10.0 mi South 5.8 mph - N/A   Clear
1:53 AM 30.9 °F - 23.0 °F 72% 30.01 in 10.0 mi Calm Calm - N/A   Clear
2:53 AM 30.9 °F 27.5 °F 23.0 °F 72% 30.02 in 10.0 mi SSW 3.5 mph - N/A   Clear
3:53 AM 32.0 °F 27.5 °F 24.1 °F 73% 30.02 in 10.0 mi WSW 4.6 mph - N/A   Mostly Cloudy
4:53 AM 28.0 °F - 24.1 °F 85% 30.04 in 10.0 mi Calm Calm - N/A   Partly Cloudy
5:53 AM 28.0 °F 22.8 °F 23.0 °F 81% 30.05 in 10.0 mi NNW 4.6 mph - N/A   Overcast
6:53 AM 28.0 °F 20.8 °F 21.9 °F 78% 30.07 in 10.0 mi NW 6.9 mph - N/A   Overcast
7:53 AM 30.9 °F 27.5 °F 24.1 °F 76% 30.09 in 10.0 mi WNW 3.5 mph - N/A   Overcast
8:53 AM 37.9 °F - 25.0 °F 60% 30.08 in 10.0 mi Calm Calm - N/A   Clear
9:53 AM 42.1 °F 40.2 °F 24.1 °F 49% 30.08 in 10.0 mi Variable 3.5 mph - N/A   Clear
10:53 AM 46.9 °F - 24.1 °F 41% 30.09 in 10.0 mi Variable 3.5 mph - N/A   Clear
11:53 AM 48.9 °F - 25.0 °F 39% 30.09 in 10.0 mi Variable 3.5 mph - N/A   Clear
12:53 PM 54.0 °F - 25.0 °F 33% 30.09 in 10.0 mi Variable 6.9 mph - N/A   Clear
1:53 PM 52.0 °F - 21.9 °F 31% 30.11 in 10.0 mi Calm Calm - N/A   Clear
2:53 PM 51.1 °F - 21.9 °F 32% 30.12 in 10.0 mi Variable 4.6 mph - N/A   Overcast
3:53 PM 53.1 °F - 21.9 °F 30% 30.12 in 10.0 mi South 6.9 mph - N/A   Mostly Cloudy
4:53 PM 53.1 °F - 21.0 °F 29% 30.14 in 10.0 mi WSW 5.8 mph - N/A   Mostly Cloudy
5:53 PM 52.0 °F - 23.0 °F 32% 30.15 in 10.0 mi SSW 6.9 mph - N/A   Partly Cloudy
7:53 PM 52.0 °F - 21.9 °F 31% 30.17 in 10.0 mi Calm Calm - N/A   Overcast
8:53 PM 50.0 °F - 25.0 °F 38% 30.19 in 10.0 mi SSE 8.1 mph - N/A   Overcast
9:53 PM 48.0 °F - 28.0 °F 46% 30.22 in 10.0 mi Variable 4.6 mph - N/A   Overcast
10:53 PM 42.1 °F - 26.1 °F 53% 30.25 in 10.0 mi Calm Calm - N/A   Overcast
11:53 PM 44.1 °F 39.5 °F 24.1 °F 45% 30.26 in 10.0 mi SW 8.1 mph - N/A   Overcast